Flag for Canada Weather past 2 weeks in Burlington, Ontario, Canada

Now
26 °F

Chilly.


Feels Like: 19 °F
Forecast: 14 / 27 °F
Wind: 7 mph from Southwest

Location: Burlington Piers

Current Time: Jan 31, 2015 at 8:07:27 PM

Latest Report: Jan 31, 2015 at 7:00 PM


Visibility: N/A

Pressure: 30.20 "Hg

Humidity: 78%

Dew point: 20 °F

Location of BurlingtonLocation

Historic Weather in Burlington — Graph

°F

Burlington temperature yesterday

Maximum temperature yesterday: 31 °F (at 12:00 AM)
Minimum temperature yesterday: 8 °F (at 11:00 PM)
Average temperature yesterday: 18 °F

Past Weeks' High & Low Weather Summary

 TemperatureHumidityPressure
High44 °F (Jan 18, 4:00 AM)95% (Jan 29, 6:00 PM)30.43 "Hg (Jan 29, 6:00 PM)
Low6 °F (Jan 31, 2:00 AM)32% (Jan 25, 5:00 PM)29.49 "Hg (Jan 24, 3:00 PM)
Average24 °F68%30.04 "Hg
* Reported Jan 16 6:00 PM — Jan 31 6:00 PM, Burlington, Weather by CustomWeather, © 2014

Note: Actual official high and low records may vary slightly from our data, if they occured in-between our weather recording intervals... More about our weather records

Advertising

Burlington weather history for previous 24 hours

 ConditionsComfort  
Time TempWeatherWind HumidityBarometerVisibility
6:00 PM
Jan 31
26 °FChilly.10 mph71%30.20 "HgN/A
5:00 PM25 °FChilly.9 mph73%30.19 "HgN/A
4:00 PM26 °FChilly.8 mph73%30.20 "HgN/A
3:00 PM27 °FChilly.8 mph66%30.22 "HgN/A
2:00 PM25 °FCold.8 mph67%30.24 "HgN/A
1:00 PM24 °FCold.7 mph66%30.25 "HgN/A
12:00 PM22 °FCold.8 mph68%30.29 "HgN/A
11:00 AM18 °FCold.5 mph73%30.32 "HgN/A
10:00 AM16 °FCold.3 mph75%30.33 "HgN/A
9:00 AM15 °FCold.3 mph69%30.34 "HgN/A
8:00 AM13 °FCold.5 mph74%30.35 "HgN/A
7:00 AM13 °FCold.3 mph73%30.36 "HgN/A
6:00 AM11 °FCold.3 mph79%30.35 "HgN/A
5:00 AM10 °FFrigid.3 mph79%30.36 "HgN/A
4:00 AM9 °FFrigid.3 mph80%30.37 "HgN/A
3:00 AM7 °FFrigid.3 mph79%30.39 "HgN/A
2:00 AM6 °FFrigid.6 mph80%30.40 "HgN/A
1:00 AM8 °FFrigid.3 mph76%30.41 "HgN/A
12:00 AM7 °FFrigid.5 mph74%30.42 "HgN/A
11:00 PM
Jan 30
8 °FFrigid.5 mph73%30.42 "HgN/A
10:00 PM8 °FFrigid.5 mph71%30.43 "HgN/A
9:00 PM9 °FFrigid.5 mph67%30.42 "HgN/A
8:00 PM9 °FFrigid.5 mph61%30.42 "HgN/A
Weather by CustomWeather, © 2014

See weather overviewHow to use our weather pages